SL-14 R/B (21423 NORAD) Tracking and Keplerian Element Data

This shows tracking and keplerian element data for the satellite.

Feedback or suggestion? Click here.




ElementValue
Catalog21423
NameSL-14 R/B
Epoch Orbit79402
Epoch Day34.89065178
Epoch Year2025
RAAN234.0259
Inclination82.4905
Eccentricity0.0018471
Argument of Perigee109.7553
Mean Anonmoly250.5655
Mean Motion14.81334738
Decay Rate8.2E-06
L11 21423U 91042B 25034.89065178 .00000820 00000+0 10177-3 0 9994
L22 21423 82.4905 234.0259 0018471 109.7553 250.5655 14.81334738794020



Live tracking and technical data element details for SL-14 R/B (NORAD 21423). SL-14 R/B can be tracked NOW for your location showing map with azimuth and elevation plus other details from your city location.







IsCatalogInMostPopularTable: catalog: 21423, numindb: 327
Update: records affected: 1



GetName: 21423 SL-14 R/B

Hit Count: updated at: Thu, 22 May 2025 03:51:57 GMT